TimeCST,TemperatureF,Dew PointF,Humidity,Sea Level PressureIn,VisibilityMPH,Wind Direction,Wind SpeedMPH,Gust SpeedMPH,PrecipitationIn,Events,Conditions,WindDirDegrees,DateUTC
12:04 AM,33.8,32.0,93,29.92,9.0,WNW,8.1,-,N/A,,Overcast,290,2012-12-29 06:04:00
12:48 AM,35.6,30.2,81,29.93,9.0,NW,8.1,-,N/A,,Overcast,310,2012-12-29 06:48:00
12:53 AM,35.1,30.9,85,29.95,9.0,WNW,8.1,-,N/A,,Overcast,300,2012-12-29 06:53:00
1:53 AM,35.1,30.0,82,29.97,7.0,WNW,9.2,-,N/A,,Overcast,300,2012-12-29 07:53:00
2:53 AM,35.1,30.0,82,30.00,7.0,WNW,9.2,-,N/A,,Overcast,290,2012-12-29 08:53:00
3:53 AM,34.0,28.9,82,30.00,7.0,NW,9.2,-,N/A,,Overcast,310,2012-12-29 09:53:00
4:53 AM,34.0,28.0,79,30.03,8.0,West,4.6,-,N/A,,Overcast,280,2012-12-29 10:53:00
5:53 AM,33.1,27.0,78,30.06,9.0,WNW,9.2,-,N/A,,Overcast,300,2012-12-29 11:53:00
6:53 AM,33.1,26.1,75,30.09,8.0,WNW,12.7,-,N/A,,Overcast,300,2012-12-29 12:53:00
7:00 AM,33.8,26.6,75,30.07,8.0,NW,12.7,-,N/A,,Overcast,310,2012-12-29 13:00:00
7:53 AM,32.0,25.0,75,30.12,3.0,WNW,13.8,-,0.00,Snow,Light Snow,290,2012-12-29 13:53:00
8:01 AM,30.2,24.8,80,30.10,3.0,WNW,16.1,-,0.00,Snow,Light Snow,290,2012-12-29 14:01:00
8:53 AM,30.9,24.1,76,30.16,2.5,WNW,17.3,-,0.00,Snow,Light Snow,300,2012-12-29 14:53:00
9:08 AM,30.2,24.8,80,30.14,1.5,WNW,13.8,21.9,0.00,Snow,Light Snow,290,2012-12-29 15:08:00
9:30 AM,30.2,24.8,80,30.15,1.8,WNW,17.3,21.9,0.00,Snow,Light Snow,300,2012-12-29 15:30:00
9:53 AM,30.0,24.1,79,30.18,2.5,NW,17.3,23.0,0.00,Snow,Light Snow,310,2012-12-29 15:53:00
10:03 AM,30.2,24.8,80,30.17,4.0,WNW,13.8,24.2,0.00,Snow,Light Snow,300,2012-12-29 16:03:00
10:53 AM,30.9,24.1,76,30.20,5.0,NW,19.6,25.3,0.00,,Haze,320,2012-12-29 16:53:00
11:45 AM,30.2,24.8,80,30.19,6.0,NW,18.4,26.5,N/A,,Haze,310,2012-12-29 17:45:00
11:53 AM,30.9,23.0,72,30.21,6.0,WNW,18.4,26.5,N/A,,Haze,300,2012-12-29 17:53:00
12:53 PM,30.9,23.0,72,30.22,6.0,NW,18.4,24.2,N/A,,Haze,310,2012-12-29 18:53:00
1:53 PM,32.0,23.0,69,30.22,8.0,WNW,15.0,-,N/A,,Overcast,290,2012-12-29 19:53:00
2:53 PM,30.9,21.9,69,30.26,10.0,NW,8.1,-,N/A,,Mostly Cloudy,310,2012-12-29 20:53:00
3:53 PM,32.0,23.0,69,30.30,9.0,WNW,5.8,-,N/A,,Overcast,290,2012-12-29 21:53:00
4:39 PM,30.2,21.2,69,30.29,9.0,West,6.9,-,N/A,,Scattered Clouds,280,2012-12-29 22:39:00
5:53 PM,28.9,21.0,72,30.34,9.0,Calm,Calm,-,N/A,,Clear,0,2012-12-29 23:53:00
6:53 PM,25.0,21.0,85,30.37,7.0,Calm,Calm,-,N/A,,Clear,0,2012-12-30 00:53:00
7:53 PM,24.1,19.9,84,30.38,6.0,Calm,Calm,-,N/A,,Clear,0,2012-12-30 01:53:00
8:53 PM,23.0,18.0,81,30.40,5.0,Calm,Calm,-,N/A,,Haze,0,2012-12-30 02:53:00
9:53 PM,21.9,18.0,85,30.41,4.0,Calm,Calm,-,N/A,,Clear,0,2012-12-30 03:53:00
10:53 PM,21.9,19.0,89,30.40,4.0,Calm,Calm,-,N/A,,Clear,0,2012-12-30 04:53:00
11:27 PM,21.2,17.6,86,30.38,2.5,Calm,Calm,-,N/A,,Clear,0,2012-12-30 05:27:00
11:43 PM,21.2,17.6,86,30.39,3.0,Calm,Calm,-,N/A,,Clear,0,2012-12-30 05:43:00